TimeEDT,TemperatureF,Dew PointF,Humidity,Sea Level PressureIn,VisibilityMPH,Wind Direction,Wind SpeedMPH,Gust SpeedMPH,PrecipitationIn,Events,Conditions,WindDirDegrees,DateUTC
12:03 AM,80.6,71.6,74,29.83,10.0,ENE,15.0,19.6,N/A,,Overcast,70,2012-10-25 04:03:00
12:14 AM,78.8,71.6,78,29.83,10.0,East,16.1,23.0,N/A,,Mostly Cloudy,100,2012-10-25 04:14:00
12:53 AM,79.0,71.1,77,29.82,10.0,East,12.7,24.2,N/A,,Mostly Cloudy,80,2012-10-25 04:53:00
1:53 AM,78.1,72.0,81,29.81,10.0,NE,16.1,20.7,N/A,,Scattered Clouds,50,2012-10-25 05:53:00
2:53 AM,78.1,71.1,79,29.76,10.0,NE,12.7,-,0.00,,Scattered Clouds,40,2012-10-25 06:53:00
3:53 AM,79.0,71.1,77,29.75,10.0,ENE,18.4,24.2,0.01,,Overcast,70,2012-10-25 07:53:00
4:19 AM,78.8,71.6,78,29.74,9.0,East,18.4,-,0.04,Rain,Light Rain,80,2012-10-25 08:19:00
4:53 AM,78.1,73.9,87,29.73,7.0,ENE,20.7,27.6,0.09,Rain,Light Rain,70,2012-10-25 08:53:00
5:16 AM,78.8,73.4,83,29.74,8.0,NE,16.1,26.5,0.00,Rain,Light Rain,50,2012-10-25 09:16:00
5:53 AM,80.1,73.0,79,29.74,10.0,ENE,23.0,32.2,0.00,,Scattered Clouds,70,2012-10-25 09:53:00
6:19 AM,80.6,71.6,74,29.75,9.0,ENE,23.0,32.2,N/A,,Overcast,60,2012-10-25 10:19:00
6:53 AM,79.0,72.0,79,29.75,9.0,ENE,21.9,27.6,N/A,,Mostly Cloudy,70,2012-10-25 10:53:00
7:53 AM,79.0,73.0,82,29.75,10.0,East,15.0,-,0.00,,Mostly Cloudy,80,2012-10-25 11:53:00
8:53 AM,77.0,72.0,84,29.78,10.0,East,27.6,35.7,0.08,,Mostly Cloudy,100,2012-10-25 12:53:00
9:18 AM,77.0,71.6,83,29.78,10.0,East,24.2,34.5,0.00,Rain,Light Rain,80,2012-10-25 13:18:00
9:53 AM,75.9,73.0,91,29.78,6.0,ENE,19.6,25.3,0.04,Rain,Light Rain,70,2012-10-25 13:53:00
10:53 AM,79.0,73.9,84,29.78,10.0,ENE,20.7,29.9,0.04,Rain,Light Rain,60,2012-10-25 14:53:00
11:53 AM,81.0,71.1,72,29.76,10.0,ENE,23.0,32.2,0.00,,Scattered Clouds,60,2012-10-25 15:53:00
12:53 PM,81.0,71.1,72,29.72,10.0,NE,26.5,35.7,0.01,Rain,Light Rain,50,2012-10-25 16:53:00
1:53 PM,82.0,70.0,67,29.70,10.0,NE,26.5,33.4,0.00,,Mostly Cloudy,50,2012-10-25 17:53:00
2:53 PM,80.1,70.0,71,29.68,10.0,NE,25.3,41.4,0.00,Rain,Light Rain,40,2012-10-25 18:53:00
3:53 PM,79.0,70.0,74,29.66,10.0,NE,27.6,34.5,0.00,Rain,Light Rain,40,2012-10-25 19:53:00
4:53 PM,77.0,73.0,88,29.66,8.0,NE,18.4,27.6,0.05,Rain,Light Rain,40,2012-10-25 20:53:00
5:47 PM,75.2,73.4,94,29.68,1.0,North,-9999.0,-,0.04,Rain,Light Rain,0,2012-10-25 21:47:00
5:53 PM,72.0,70.0,93,29.68,2.0,ENE,28.8,44.9,0.14,,Overcast,60,2012-10-25 21:53:00
6:00 PM,71.6,69.8,94,29.68,7.0,ENE,24.2,40.3,0.00,Rain,Light Rain,60,2012-10-25 22:00:00
6:53 PM,75.9,68.0,76,29.68,10.0,NE,27.6,40.3,0.02,Rain,Light Rain,50,2012-10-25 22:53:00
7:53 PM,77.0,68.0,74,29.67,10.0,NNE,21.9,35.7,0.00,Rain,Light Rain,30,2012-10-25 23:53:00
8:53 PM,80.1,70.0,71,29.67,10.0,NNE,28.8,34.5,0.00,Rain,Light Rain,30,2012-10-26 00:53:00
9:53 PM,77.0,60.1,56,29.67,10.0,NNE,27.6,41.4,0.01,Rain,Light Rain,20,2012-10-26 01:53:00
10:53 PM,78.1,66.9,68,29.65,7.0,NNE,21.9,28.8,0.00,Rain,Light Rain,20,2012-10-26 02:53:00
11:53 PM,79.0,69.1,72,29.62,9.0,NNE,25.3,33.4,0.01,,Mostly Cloudy,20,2012-10-26 03:53:00